Flag Weather past 2 weeks in Kansas City, Missouri, U.S.A.

Now
35 °F

Partly sunny.


Feels Like: 27 °F
Forecast: 31 / 41 °F
Wind: 12 mph from Northwest

Location: Kansas City Downtown Airport

Current Time: Nov 24, 2014 at 9:11:50 AM

Latest Report: Nov 24, 2014 at 7:54 AM


Visibility: 10 mi

Pressure: 29.68 "Hg

Humidity: 61%

Dew point: 23 °F

Location of Kansas CityLocation

Historic Weather in Kansas City — Graph

°F

Kansas City temperature yesterday

Maximum temperature yesterday: 58 °F (at 1:57 PM)
Minimum temperature yesterday: 41 °F (at 8:54 PM)
Average temperature yesterday: 52 °F

Past Weeks' High & Low Weather Summary

 TemperatureHumidityPressure
High71 °F (Nov 10, 1:54 PM)97% (Nov 22, 5:54 AM)30.61 "Hg (Nov 22, 5:54 AM)
Low13 °F (Nov 18, 3:54 AM)30% (Nov 18, 2:54 PM)29.32 "Hg (Nov 23, 3:54 PM)
Average35 °F61%30.11 "Hg
* Reported Nov 9 7:54 AM — Nov 24 7:54 AM, Kansas City, Weather by CustomWeather, © 2014

Note: Actual official high and low records may vary slightly from our data, if they occured in-between our weather recording intervals... More about our weather records

Advertising

Kansas City weather history for previous 24 hours

 ConditionsComfort  
Time TempWeatherWind HumidityBarometerVisibility
7:54 AM
Nov 24
35 °FPartly sunny.12 mph61%29.68 "Hg10 mi
6:54 AM35 °FOvercast.15 mph64%29.66 "Hg10 mi
5:54 AM36 °FOvercast.16 mph64%29.62 "Hg10 mi
4:54 AM36 °FOvercast.8 mph62%29.61 "Hg10 mi
3:54 AM37 °FOvercast.14 mph60%29.60 "Hg10 mi
2:54 AM37 °FPassing clouds.10 mph62%29.58 "Hg10 mi
1:54 AM40 °FLight rain. Overcast.16 mph63%29.53 "Hg10 mi
12:54 AM42 °FPassing clouds.17 mph65%29.50 "Hg10 mi
11:54 PM
Nov 23
42 °FPassing clouds.10 mph73%29.48 "Hg10 mi
10:54 PM43 °FOvercast.15 mph71%29.46 "Hg10 mi
9:54 PM42 °FMostly cloudy.8 mph82%29.47 "Hg10 mi
8:54 PM41 °FLight rain. Mostly cloudy.14 mph82%29.46 "Hg10 mi
7:54 PM43 °FLight rain. Overcast.21 mph82%29.44 "Hg7 mi
6:54 PM45 °FLight rain. Overcast.15 mph86%29.41 "Hg7 mi
5:54 PM46 °FMostly cloudy.20 mph86%29.38 "Hg10 mi
4:54 PM49 °FLight rain. Overcast.14 mph84%29.36 "Hg10 mi
3:54 PM53 °FLight rain. Fog.17 mph86%29.32 "Hg3 mi
2:54 PM57 °FFog.5 mph90%29.32 "Hg4 mi
1:57 PM58 °FFog.No wind93%29.34 "Hg2 mi
1:02 PM57 °FFog.No wind93%29.37 "Hg2 mi
12:54 PM57 °FFog.No wind93%29.36 "Hg2 mi
12:03 PM57 °FFog.3 mph93%29.40 "Hg2 mi
11:54 AM57 °FFog.No wind93%29.40 "Hg2 mi
10:54 AM57 °FFog.No wind90%29.45 "Hg5 mi
10:01 AM56 °FFog.5 mph93%29.48 "Hg6 mi
Weather by CustomWeather, © 2014

See weather overviewHow to use our weather pages